�������l�o���
Date,Time,MP-1(��Sv/h),MP-2(��Sv/h),MP-3(��Sv/h),MP-4(��Sv/h),MP-5(��Sv/h),MP-6(��Sv/h),MP-7(��Sv/h),MP-8(��Sv/h),����,����(m/s),���J
2023/06/07,00:00,0.555,0.822,0.500,1.006,0.727,0.329,0.574,0.543,��,8.2,�L
2023/06/07,00:10,0.556,0.821,0.499,1.003,0.728,0.329,0.577,0.542,��,8.5,�L
2023/06/07,00:20,0.554,0.823,0.500,1.005,0.726,0.328,0.574,0.542,��,7.9,��
2023/06/07,00:30,0.554,0.822,0.497,1.004,0.725,0.327,0.576,0.542,��,7.8,�L
2023/06/07,00:40,0.554,0.820,0.498,1.003,0.725,0.327,0.576,0.542,��,8.2,�L
2023/06/07,00:50,0.554,0.821,0.497,1.004,0.724,0.327,0.575,0.540,��,8.5,��
2023/06/07,01:00,0.553,0.820,0.499,1.002,0.725,0.326,0.576,0.541,��,8.6,��
2023/06/07,01:10,0.555,0.820,0.496,1.005,0.724,0.327,0.575,0.542,��,6.5,��
2023/06/07,01:20,0.554,0.820,0.496,1.003,0.726,0.327,0.576,0.542,��,6.8,��
2023/06/07,01:30,0.553,0.822,0.497,1.003,0.725,0.326,0.576,0.541,��,6.2,��
2023/06/07,01:40,0.555,0.819,0.497,1.003,0.723,0.326,0.576,0.541,��,5.6,��
2023/06/07,01:50,0.553,0.819,0.497,1.002,0.725,0.325,0.576,0.541,��,5.2,��
2023/06/07,02:00,0.553,0.819,0.498,1.004,0.725,0.326,0.576,0.541,��,4.9,��
2023/06/07,02:10,0.553,0.819,0.497,1.003,0.726,0.325,0.576,0.542,��쐼,5.0,��
2023/06/07,02:20,0.553,0.821,0.498,1.001,0.726,0.327,0.574,0.542,��쐼,5.0,��
2023/06/07,02:30,0.552,0.820,0.498,1.005,0.725,0.326,0.575,0.540,��쐼,4.3,��
2023/06/07,02:40,0.553,0.822,0.496,1.003,0.727,0.325,0.576,0.540,��쐼,3.8,��
2023/06/07,02:50,0.554,0.821,0.496,1.002,0.725,0.326,0.576,0.541,��쐼,4.5,��
2023/06/07,03:00,0.553,0.822,0.496,1.003,0.725,0.325,0.574,0.541,��,4.8,��
2023/06/07,03:10,0.552,0.821,0.496,1.004,0.728,0.327,0.576,0.540,��쐼,4.3,��
2023/06/07,03:20,0.555,0.821,0.499,1.000,0.726,0.327,0.575,0.541,��쐼,4.2,��
2023/06/07,03:30,0.555,0.820,0.495,1.002,0.727,0.326,0.576,0.541,�쐼,3.6,��
2023/06/07,03:40,0.554,0.822,0.496,1.003,0.727,0.326,0.575,0.542,��쐼,3.2,��
2023/06/07,03:50,0.554,0.823,0.497,1.005,0.726,0.326,0.577,0.541,��쐼,2.3,��
2023/06/07,04:00,0.553,0.822,0.495,1.004,0.725,0.327,0.576,0.541,��,2.3,��
2023/06/07,04:10,0.553,0.821,0.495,1.004,0.725,0.327,0.576,0.541,��,2.0,��
2023/06/07,04:20,0.554,0.820,0.496,1.004,0.726,0.327,0.577,0.542,-,CALM,��
2023/06/07,04:30,0.557,0.821,0.496,1.002,0.726,0.327,0.578,0.540,�k�k��,1.5,��
2023/06/07,04:40,0.555,0.820,0.498,0.999,0.726,0.327,0.576,0.542,�k�k��,2.3,��
2023/06/07,04:50,0.554,0.821,0.496,1.003,0.726,0.327,0.578,0.540,�k��,2.5,��
2023/06/07,05:00,0.557,0.819,0.497,1.002,0.726,0.327,0.577,0.540,�k��,2.0,��
2023/06/07,05:10,0.554,0.821,0.497,1.002,0.726,0.328,0.577,0.542,�k��,3.9,��
2023/06/07,05:20,0.555,0.820,0.497,1.003,0.725,0.327,0.577,0.542,���k��,4.1,��
2023/06/07,05:30,0.554,0.820,0.496,1.005,0.726,0.327,0.578,0.541,���k��,3.1,��
2023/06/07,05:40,0.556,0.823,0.496,1.000,0.727,0.327,0.577,0.541,���k��,3.6,��
2023/06/07,05:50,0.556,0.822,0.497,1.003,0.726,0.326,0.577,0.541,���k��,3.5,��
2023/06/07,06:00,0.556,0.820,0.496,1.004,0.728,0.327,0.579,0.541,��,2.6,��
2023/06/07,06:10,0.556,0.821,0.496,1.002,0.726,0.327,0.579,0.540,�쐼,1.9,��
2023/06/07,06:20,0.556,0.821,0.497,1.004,0.728,0.328,0.579,0.541,�쐼,1.7,��
2023/06/07,06:30,0.555,0.822,0.499,1.004,0.727,0.328,0.579,0.542,�쐼,1.2,��
2023/06/07,06:40,0.555,0.822,0.497,1.004,0.728,0.327,0.578,0.541,���k��,2.0,��
2023/06/07,06:50,0.554,0.819,0.497,1.006,0.725,0.328,0.578,0.542,�k�k��,2.0,��
2023/06/07,07:00,0.556,0.819,0.498,1.000,0.723,0.326,0.579,0.543,�k�k��,2.2,��
2023/06/07,07:10,0.554,0.821,0.497,1.003,0.725,0.325,0.579,0.542,�k�k��,2.3,��
2023/06/07,07:20,0.554,0.818,0.497,1.007,0.725,0.324,0.580,0.543,�k�k��,1.9,��
2023/06/07,07:30,0.555,0.821,0.498,1.006,0.727,0.325,0.578,0.542,�k�k��,2.0,��
2023/06/07,07:40,0.554,0.819,0.496,1.005,0.725,0.325,0.578,0.542,�k�k��,2.8,��
2023/06/07,07:50,0.555,0.819,0.498,1.005,0.725,0.325,0.578,0.541,�k�k��,3.1,��
2023/06/07,08:00,0.555,0.822,0.495,1.005,0.728,0.327,0.576,0.540,�k�k��,3.8,��
2023/06/07,08:10,0.554,0.819,0.500,1.003,0.726,0.325,0.576,0.539,�k�k��,3.9,��
2023/06/07,08:20,0.555,0.821,0.497,1.003,0.727,0.326,0.576,0.539,�k��,3.6,��
2023/06/07,08:30,0.554,0.822,0.499,1.003,0.726,0.324,0.577,0.540,�k�k��,4.8,��
2023/06/07,08:40,0.556,0.819,0.498,1.004,0.726,0.326,0.578,0.540,�k,5.6,��
2023/06/07,08:50,0.555,0.820,0.496,1.004,0.726,0.326,0.577,0.541,�k�k��,5.0,��
2023/06/07,09:00,0.557,0.823,0.496,1.005,0.726,0.325,0.577,0.540,�k�k��,5.4,��
2023/06/07,09:10,0.556,0.820,0.496,1.004,0.726,0.324,0.578,0.540,�k�k��,5.9,��
2023/06/07,09:20,-,0.822,0.495,1.003,0.728,0.324,0.576,0.539,�k�k��,6.1,��
2023/06/07,09:30,-,0.821,0.495,1.003,0.726,0.325,0.577,0.539,�k�k��,6.6,��
2023/06/07,09:40,-,0.822,0.496,1.005,0.727,0.327,0.577,0.541,�k�k��,6.9,��
2023/06/07,09:50,-,0.821,0.498,1.005,0.728,0.327,0.579,0.541,�k�k��,7.1,��
2023/06/07,10:00,-,0.823,0.498,1.004,0.727,0.326,0.578,0.540,�k�k��,7.6,��
2023/06/07,10:10,-,0.821,0.498,1.004,0.727,0.326,0.577,0.541,�k�k��,8.1,��
2023/06/07,10:20,-,0.821,0.497,1.006,0.728,0.326,0.579,0.540,�k�k��,7.6,��
2023/06/07,10:30,-,0.824,0.498,1.006,0.730,0.327,0.579,0.540,�k�k��,7.7,��
2023/06/07,10:40,-,0.822,0.497,1.005,0.728,0.327,0.578,0.543,�k�k��,7.5,��
2023/06/07,10:50,-,0.825,0.497,1.004,0.728,0.326,0.577,0.541,�k�k��,7.9,��
2023/06/07,11:00,-,0.824,0.497,1.003,0.729,0.326,0.579,0.540,�k�k��,7.6,��
2023/06/07,11:10,-,0.824,0.498,1.003,0.729,0.325,0.578,0.540,�k�k��,7.5,��
2023/06/07,11:20,-,0.821,0.497,1.004,0.729,0.327,0.578,0.541,�k�k��,7.9,��
2023/06/07,11:30,-,0.824,0.498,1.002,0.729,0.326,0.578,0.542,�k�k��,7.3,��
2023/06/07,11:40,-,0.825,0.497,1.004,0.730,0.326,0.578,0.542,�k�k��,6.7,��
2023/06/07,11:50,-,0.824,0.498,1.003,0.731,0.327,0.579,0.541,�k�k��,5.9,��
2023/06/07,12:00,0.557,0.825,0.499,1.004,0.730,0.327,0.577,0.542,�k�k��,6.0,��
2023/06/07,12:10,0.557,0.825,0.497,1.003,0.731,0.327,0.578,0.542,�k�k��,6.4,��
2023/06/07,12:20,0.557,0.824,0.498,1.003,0.731,0.328,0.578,0.541,�k�k��,6.4,��
2023/06/07,12:30,0.556,0.826,0.499,1.004,0.731,0.327,0.577,0.542,�k��,4.6,��
2023/06/07,12:40,0.556,0.824,0.500,1.005,0.732,0.327,0.578,0.543,�k�k��,4.2,��
2023/06/07,12:50,0.557,0.826,0.497,1.004,0.733,0.326,0.576,0.541,�k�k��,3.2,��
2023/06/07,13:00,0.556,0.825,0.498,1.004,0.733,0.327,0.578,0.543,�k�k��,4.0,��
2023/06/07,13:10,0.554,0.825,0.498,1.006,0.731,0.327,0.579,0.544,�k��,4.3,��
2023/06/07,13:20,0.557,0.826,0.500,1.003,0.731,0.328,0.578,0.542,���k��,3.7,��
2023/06/07,13:30,0.556,0.827,0.500,1.004,0.733,0.326,0.577,0.542,�k��,4.9,��
2023/06/07,13:40,0.556,0.822,0.498,1.005,0.731,0.328,0.579,0.541,�k��,4.2,��
2023/06/07,13:50,0.556,0.823,0.500,1.007,0.731,0.328,0.578,0.542,�k��,4.4,��
2023/06/07,14:00,0.555,0.825,0.500,1.005,0.729,0.327,0.577,0.542,�k��,3.6,��
2023/06/07,14:10,0.557,0.825,0.499,1.004,0.732,0.327,0.578,0.542,�k��,3.5,��
2023/06/07,14:20,0.558,0.825,0.498,1.008,0.732,0.329,0.578,0.542,�k��,4.1,��
2023/06/07,14:30,0.558,0.825,0.499,1.008,0.731,0.327,0.578,0.542,�k��,3.5,��
2023/06/07,14:40,0.556,0.826,0.500,1.007,0.732,0.326,0.578,0.543,���k��,3.3,��
2023/06/07,14:50,0.557,0.826,0.499,1.005,0.735,0.327,0.579,0.542,���k��,2.5,��
2023/06/07,15:00,0.557,0.827,0.499,1.005,0.733,0.327,0.579,0.542,���쓌,2.8,��
2023/06/07,15:10,0.557,0.825,0.499,1.006,0.735,0.327,0.578,0.541,��,2.3,��
2023/06/07,15:20,0.558,0.828,0.500,1.008,0.735,0.327,0.576,0.540,���쓌,2.8,��
2023/06/07,15:30,0.558,0.824,0.498,1.006,0.734,0.326,0.578,0.542,�쓌,2.3,��
2023/06/07,15:40,0.557,0.828,0.498,1.006,0.735,0.327,0.576,0.542,�쓌,1.5,��
2023/06/07,15:50,0.558,0.828,0.498,1.006,0.734,0.328,0.577,0.542,�쓌,2.0,��
2023/06/07,16:00,0.556,0.828,0.499,1.007,0.731,0.327,0.577,0.542,��,2.3,��
2023/06/07,16:10,0.557,0.826,0.498,1.007,0.733,0.327,0.577,0.542,�쓌,1.7,��
2023/06/07,16:20,0.558,0.827,0.498,1.005,0.731,0.327,0.579,0.541,��쓌,2.0,��
2023/06/07,16:30,0.558,0.827,0.499,1.007,0.731,0.326,0.578,0.541,��,1.7,��
2023/06/07,16:40,0.558,0.828,0.498,1.007,0.733,0.326,0.580,0.541,��쐼,1.7,��
2023/06/07,16:50,0.558,0.825,0.498,1.008,0.736,0.327,0.578,0.541,��쐼,2.3,��
2023/06/07,17:00,0.558,0.826,0.497,1.008,0.734,0.327,0.577,0.541,��,2.9,��
2023/06/07,17:10,0.560,0.826,0.500,1.007,0.734,0.326,0.577,0.541,��,2.6,��
2023/06/07,17:20,0.557,0.828,0.501,1.007,0.735,0.327,0.580,0.541,��쐼,2.2,��
2023/06/07,17:30,0.559,0.827,0.500,1.005,0.732,0.326,0.578,0.544,��,2.2,��
2023/06/07,17:40,0.556,0.827,0.499,1.007,0.734,0.328,0.580,0.544,��쓌,3.6,��
2023/06/07,17:50,0.557,0.831,0.499,1.006,0.733,0.328,0.579,0.543,��,3.8,��
2023/06/07,18:00,0.558,0.827,0.502,1.008,0.735,0.327,0.580,0.544,��,3.4,��
2023/06/07,18:10,0.559,0.830,0.501,1.009,0.736,0.329,0.578,0.543,��,2.6,��
2023/06/07,18:20,0.558,0.828,0.501,1.009,0.732,0.327,0.579,0.543,��,4.0,��
2023/06/07,18:30,0.559,0.830,0.501,1.010,0.734,0.328,0.580,0.543,��쐼,4.3,��
2023/06/07,18:40,0.560,0.829,0.501,1.010,0.735,0.327,0.579,0.544,��,4.6,��
2023/06/07,18:50,0.558,0.830,0.501,1.008,0.735,0.328,0.578,0.544,��,4.4,��
2023/06/07,19:00,0.558,0.829,0.501,1.010,0.734,0.328,0.579,0.544,��,3.9,��
2023/06/07,19:10,0.557,0.829,0.501,1.010,0.736,0.329,0.579,0.543,��,4.3,��
2023/06/07,19:20,0.559,0.831,0.500,1.010,0.734,0.327,0.579,0.543,��,4.5,��
2023/06/07,19:30,0.558,0.830,0.500,1.010,0.735,0.329,0.578,0.543,��,4.6,��
2023/06/07,19:40,0.559,0.828,0.500,1.010,0.734,0.328,0.578,0.546,��,3.9,��
2023/06/07,19:50,0.557,0.829,0.501,1.009,0.736,0.328,0.579,0.543,��,3.3,��
2023/06/07,20:00,0.557,0.827,0.502,1.010,0.735,0.330,0.578,0.542,��쐼,3.3,��
2023/06/07,20:10,0.559,0.830,0.502,1.011,0.736,0.328,0.581,0.542,��,2.3,��
2023/06/07,20:20,0.558,0.828,0.502,1.008,0.734,0.329,0.578,0.545,��쐼,2.5,��
2023/06/07,20:30,0.559,0.829,0.501,1.008,0.736,0.329,0.578,0.544,��쐼,2.6,��
2023/06/07,20:40,0.558,0.829,0.500,1.011,0.736,0.328,0.580,0.543,��쐼,2.9,��
2023/06/07,20:50,0.559,0.829,0.502,1.010,0.735,0.329,0.580,0.543,��쐼,2.6,��
2023/06/07,21:00,0.558,0.829,0.502,1.011,0.737,0.329,0.580,0.543,��쐼,2.3,��
2023/06/07,21:10,0.559,0.830,0.503,1.008,0.736,0.328,0.579,0.543,���쐼,1.7,��
2023/06/07,21:20,0.558,0.831,0.500,1.012,0.736,0.329,0.580,0.543,���k��,1.2,��
2023/06/07,21:30,0.559,0.829,0.501,1.009,0.735,0.330,0.579,0.545,�k�k��,1.5,��
2023/06/07,21:40,0.560,0.830,0.503,1.010,0.735,0.328,0.581,0.542,�k,2.0,��
2023/06/07,21:50,0.558,0.830,0.501,1.010,0.735,0.329,0.581,0.542,�k,3.6,��
2023/06/07,22:00,0.559,0.831,0.503,1.010,0.737,0.329,0.580,0.542,�k,3.9,��
2023/06/07,22:10,0.560,0.830,0.501,1.010,0.735,0.330,0.581,0.543,�k�k��,3.4,��
2023/06/07,22:20,0.559,0.831,0.503,1.011,0.736,0.329,0.579,0.544,�k�k��,3.8,��
2023/06/07,22:30,0.559,0.827,0.500,1.010,0.737,0.329,0.580,0.544,�k�k��,3.6,��
2023/06/07,22:40,0.559,0.833,0.502,1.011,0.735,0.329,0.580,0.543,�k��,3.9,��
2023/06/07,22:50,0.558,0.830,0.503,1.012,0.738,0.328,0.581,0.543,�k��,3.7,��
2023/06/07,23:00,0.559,0.832,0.501,1.011,0.736,0.330,0.582,0.544,�k�k��,4.7,��
2023/06/07,23:10,0.560,0.829,0.500,1.012,0.736,0.329,0.582,0.543,�k�k��,5.4,��
2023/06/07,23:20,0.558,0.828,0.500,1.010,0.735,0.329,0.581,0.542,�k�k��,5.1,��
2023/06/07,23:30,0.560,0.831,0.500,1.010,0.734,0.330,0.581,0.544,�k�k��,5.4,��
2023/06/07,23:40,0.558,0.831,0.503,1.011,0.732,0.329,0.581,0.543,�k�k��,4.8,��
2023/06/07,23:50,0.559,0.830,0.501,1.011,0.735,0.330,0.581,0.543,�k�k��,5.0,��
